RH
3 3 5 6 6 6 6 7 7 7 8 9 9 9 10 9 7 7 7 7 7 7 8 10 9 10 13 16 15 14 15 17 21 27 33 36 41 47 48 47 49 51 54 55 56 57 58 61 63 64 64 65 66 68 67 66 66 63 60 58 56 55 55 53 51 49 49 48 46 45 44 43 43 42 43 46 50 52 57 62 63 66 67 69 75 77
3 5 7 7 6 6 6 8 7 9 9 9 10 9 9 8 6 7 6 6 8 7 7 10 10 11 13 14 15 16 17 17 18 21 23 25 31 39 45 49 53 58 61 63 66 68 69 71 73 73 73 73 73 74 75 75 75 74 73 71 68 67 66 65 63 59 56 54 53 51 49 47 46 46 45 46 49 50 53 57 58 60 63 66 72 77
5 8 9 8 7 7 7 8 8 9 9 10 9 9 8 7 6 7 5 6 9 6 6 12 14 11 12 15 16 17 17 18 17 17 18 21 26 31 38 47 53 58 64 67 71 72 73 74 74 75 75 76 76 76 77 78 79 80 81 81 80 79 78 78 77 74 70 65 63 60 58 57 55 53 52 50 51 52 53 56 56 57 61 65 71 78
8 10 10 9 8 7 8 9 9 10 10 10 9 9 7 5 8 7 5 7 8 7 7 11 16 14 12 14 16 15 15 17 18 18 20 25 30 33 37 44 50 55 60 64 68 70 71 72 72 73 74 74 74 75 75 76 76 78 79 80 81 81 80 80 79 79 79 77 75 72 68 66 65 63 63 62 61 60 60 60 60 59 57 58 62 69
10 11 10 9 9 9 10 9 9 10 10 10 8 8 6 5 8 6 5 6 7 10 9 10 19 22 16 13 13 14 16 18 19 20 26 32 36 39 43 49 55 58 61 63 63 64 65 66 67 69 70 70 70 70 69 70 69 69 68 69 70 72 72 71 70 69 72 74 76 77 77 76 74 71 71 72 71 70 69 69 69 67 63 60 59 63
11 11 10 10 10 10 10 9 9 9 10 12 9 6 6 6 7 6 6 7 9 13 12 13 22 23 19 18 16 17 20 20 21 24 32 38 40 42 44 47 50 54 59 62 64 65 66 66 65 64 63 61 60 59 56 56 56 54 53 53 53 54 56 55 54 52 52 53 56 62 68 74 77 78 76 75 73 72 72 71 73 73 71 68 66 65
11 10 10 11 10 10 10 9 9 9 13 16 11 6 6 6 7 6 7 9 11 13 11 16 24 22 22 26 22 20 23 22 22 28 34 37 36 37 40 47 53 57 61 64 68 69 67 63 59 56 53 50 47 43 39 35 33 32 31 32 33 33 34 35 34 34 33 34 35 36 40 48 59 69 75 77 76 75 74 72 72 73 74 74 73 72
11 11 11 10 10 10 9 9 10 10 14 17 10 6 7 7 7 7 8 10 10 12 14 16 20 21 23 27 23 20 22 23 24 28 31 31 33 38 47 57 64 70 72 70 67 63 58 54 49 44 41 38 36 32 27 22 18 16 16 15 15 16 18 20 22 23 22 22 21 20 19 21 27 38 51 61 67 70 73 74 74 73 73 74 73 73
11 11 10 10 10 10 9 10 10 9 13 15 9 7 7 7 7 8 10 11 9 13 18 17 18 20 19 21 22 22 23 24 26 29 30 33 39 47 56 65 73 77 73 65 60 54 46 39 33 28 24 22 20 18 15 13 11 11 13 13 12 13 14 16 17 18 17 17 15 14 13 13 12 14 21 30 39 47 55 62 68 70 71 73 74 74
11 10 10 10 9 10 10 9 9 9 12 13 9 7 7 7 8 9 11 11 11 14 16 16 18 21 20 21 24 25 24 26 30 33 37 43 51 60 67 73 75 70 61 56 53 44 32 22 18 16 16 16 16 17 19 20 19 18 20 22 20 20 24 26 25 21 17 16 14 14 15 15 15 13 12 13 17 25 34 42 51 58 62 67 72 75
12 10 10 10 9 9 9 8 8 9 11 12 10 6 8 10 10 12 13 11 13 16 15 15 20 27 30 27 27 27 28 32 38 42 48 58 70 78 78 73 67 62 57 50 38 26 17 13 15 21 25 28 30 33 37 39 40 38 35 35 33 34 42 50 47 37 27 20 16 14 15 18 20 20 19 16 14 16 22 29 36 43 48 52 58 64
13 11 9 9 9 9 8 8 8 8 11 12 9 8 11 14 14 16 16 16 18 17 16 19 27 38 40 34 32 34 36 43 49 56 65 73 78 78 70 64 63 61 48 31 20 15 16 20 29 39 44 46 46 45 47 50 54 53 50 49 48 48 55 62 61 54 45 36 29 22 16 17 21 23 24 25 24 23 26 29 32 37 42 44 45 48
14 12 9 8 9 9 9 10 10 11 13 12 12 18 20 20 22 22 20 22 22 20 22 27 37 44 37 32 35 37 43 54 64 75 80 79 76 70 66 65 59 44 26 16 15 18 27 40 50 55 56 57 58 57 57 58 60 60 58 58 57 56 60 61 59 57 52 46 44 37 24 17 20 23 22 24 27 31 37 40 39 40 43 44 42 42
15 14 11 8 9 10 9 10 12 12 16 16 17 26 28 27 34 34 28 28 27 27 28 32 42 41 29 29 36 35 41 53 64 75 78 77 77 73 70 62 42 24 15 16 22 31 45 55 58 58 61 64 68 68 66 65 65 64 61 60 60 59 62 62 60 57 54 51 51 49 38 24 20 23 22 21 23 26 34 44 47 45 45 46 45 43
16 16 12 9 9 10 8 9 10 11 19 18 15 28 36 35 40 39 32 32 35 36 36 38 39 32 28 33 36 35 43 52 59 67 71 75 80 72 57 41 24 16 17 22 33 46 56 56 54 58 63 68 71 72 74 72 69 66 64 65 67 67 65 63 62 61 60 59 60 62 58 43 30 26 24 22 21 22 27 38 46 47 45 46 45 45
14 15 13 10 8 9 9 10 9 12 20 17 18 34 40 37 43 42 37 41 47 48 48 45 36 31 35 38 38 45 54 58 59 62 64 69 68 52 31 20 18 18 21 33 46 54 53 51 54 59 64 69 73 75 77 77 75 73 71 71 73 74 71 67 67 66 65 67 71 74 74 65 54 45 40 34 28 26 27 33 43 47 47 47 45 45
13 14 13 10 7 8 10 10 10 14 17 20 30 39 35 37 50 51 45 48 52 51 45 38 35 37 40 45 55 61 58 56 58 58 59 56 42 26 19 20 21 22 31 45 53 52 50 53 60 65 69 74 78 80 81 83 88 88 82 79 78 78 78 76 74 70 68 71 76 79 80 79 75 72 69 63 54 47 41 39 44 48 49 49 49 47
15 13 12 10 8 9 10 11 12 15 17 24 36 36 27 38 56 56 53 50 47 46 38 33 40 44 44 53 65 64 60 63 62 55 47 35 22 19 24 26 24 29 44 52 50 48 50 59 70 75 77 80 86 93 94 95 97 96 92 91 90 86 84 82 78 72 69 70 73 77 80 82 85 86 87 84 79 73 65 57 54 53 51 51 51 51
16 17 13 9 9 9 10 13 15 18 21 24 30 30 27 42 57 58 58 55 51 53 47 41 46 50 51 56 59 63 73 75 63 51 37 21 21 29 31 29 32 43 52 50 48 52 59 72 84 88 90 93 96 98 97 97 97 98 99 100 99 96 92 88 83 76 73 74 76 77 78 79 81 84 85 85 83 81 77 72 68 64 59 56 54 53
16 23 17 9 9 10 11 15 19 24 27 25 27 31 35 46 53 53 54 52 51 59 62 60 58 52 50 57 64 71 75 71 61 50 32 21 28 34 31 34 44 51 52 48 49 59 71 85 96 99 99 98 98 96 95 97 99 100 102 101 99 98 94 87 84 82 81 83 84 83 80 77 75 75 75 77 77 76 75 74 72 71 69 67 63 58
16 25 20 10 9 11 13 17 21 25 28 28 30 37 44 50 53 56 59 59 59 62 65 72 69 53 49 60 69 69 65 67 68 52 30 25 31 33 34 44 52 54 50 47 54 71 86 95 99 100 101 100 99 98 99 101 101 101 101 99 95 92 90 85 82 83 84 85 88 89 86 80 77 75 73 72 72 71 70 69 69 69 69 71 71 68
16 20 17 11 10 12 14 20 22 23 27 30 35 44 56 62 65 67 63 61 71 74 72 81 79 64 62 64 60 60 64 67 64 48 30 27 33 38 42 48 52 54 51 48 60 85 98 99 100 99 99 102 102 100 100 100 100 99 97 94 91 88 89 87 83 83 83 84 88 92 91 85 80 78 77 76 75 73 71 70 70 70 70 70 73 73
14 16 15 13 12 12 16 21 22 26 31 34 39 50 64 71 72 74 71 70 85 90 80 80 78 66 64 61 56 63 69 61 50 41 33 33 39 43 47 54 56 54 52 52 66 91 101 98 101 102 100 101 101 100 100 100 99 97 92 89 89 87 88 87 85 86 85 84 86 89 91 90 86 84 82 81 81 80 79 77 76 77 77 75 75 76
13 15 14 14 13 14 19 22 23 27 28 30 38 48 59 64 57 60 73 82 93 91 72 69 72 59 51 56 61 63 63 57 43 35 35 41 48 51 56 68 69 57 51 55 70 93 104 100 99 101 101 101 101 100 98 96 94 93 91 92 94 94 91 87 86 88 87 85 83 83 85 86 87 87 85 84 84 82 81 81 80 80 79 78 77 77
13 13 15 17 19 21 24 24 26 28 23 24 36 41 46 49 40 45 69 86 92 84 70 73 78 62 47 51 57 57 61 57 41 38 46 51 62 72 69 70 71 62 57 67 83 93 97 100 102 101 101 101 99 96 92 91 93 96 98 98 96 96 93 86 85 86 86 85 84 82 81 82 85 85 84 84 83 82 81 82 82 82 82 82 80 77
14 15 17 20 24 26 25 24 26 29 27 32 40 42 43 43 41 57 85 97 90 82 84 89 85 70 51 36 35 49 64 60 47 52 61 58 65 79 74 69 72 67 64 76 90 90 88 96 101 100 101 99 96 95 94 95 98 98 97 93 93 97 96 91 89 89 89 88 87 86 84 85 90 91 91 91 89 88 87 86 86 86 86 85 82 78
16 19 17 16 21 22 20 21 24 28 35 42 45 43 43 46 55 76 96 98 87 89 97 91 83 80 58 31 32 52 64 69 69 71 71 64 65 74 76 75 74 72 72 74 76 77 81 92 100 100 101 99 97 98 99 100 99 96 93 91 95 99 98 97 97 94 94 93 92 89 86 87 93 97 99 100 98 96 93 88 86 84 83 81 77 73
16 21 17 13 16 16 17 20 25 34 43 46 43 40 41 53 70 84 95 97 95 101 95 69 62 71 52 30 40 53 60 79 90 89 81 70 71 83 84 74 72 81 87 78 68 68 73 84 96 100 99 99 99 100 100 100 98 94 92 92 93 94 94 96 97 95 94 94 93 92 87 88 95 98 99 101 98 93 88 83 82 82 83 84 78 71
16 19 16 13 13 16 18 20 25 36 40 35 35 38 43 65 86 89 92 94 89 89 79 54 51 57 43 35 44 45 57 85 99 103 92 67 69 93 89 70 72 89 95 84 73 69 71 82 93 97 98 100 100 101 100 101 99 93 88 89 92 93 94 96 97 96 95 93 93 93 89 92 98 99 100 101 97 91 85 80 79 80 84 86 81 72
16 17 15 15 14 15 17 18 21 26 26 26 35 38 44 71 97 97 90 79 58 46 44 41 43 40 35 43 48 45 62 87 99 105 86 51 56 87 89 74 75 85 93 92 83 76 78 86 92 97 102 102 100 101 100 99 98 93 89 92 95 95 94 95 98 99 99 98 98 98 96 98 100 99 100 101 98 93 86 80 80 82 81 81 77 70
16 15 16 16 15 15 16 17 18 20 22 29 39 43 51 74 94 91 77 57 33 19 21 32 43 44 45 54 60 67 85 99 105 100 68 36 45 74 88 87 81 79 86 90 87 84 82 82 87 94 99 100 99 100 100 99 97 94 93 96 97 95 96 98 101 102 102 102 101 101 102 102 100 100 102 100 95 91 87 87 90 87 80 77 74 68
16 15 16 16 18 20 17 15 17 21 28 37 43 48 60 78 88 79 58 34 23 26 33 44 56 58 56 55 58 66 71 77 89 82 50 33 48 71 90 98 92 85 87 90 91 88 81 79 84 92 98 101 100 100 101 101 99 98 99 100 97 96 99 101 103 103 103 102 101 101 102 103 101 101 102 98 90 84 85 91 92 85 80 80 77 68
16 15 15 18 20 19 16 16 19 27 37 43 42 40 50 69 73 58 37 20 21 34 44 52 57 52 50 57 62 53 39 46 71 68 38 31 55 81 94 96 92 91 93 95 96 91 83 81 85 92 99 101 100 101 102 101 99 100 100 101 100 100 102 103 103 103 103 103 102 100 100 102 102 100 99 97 89 81 84 90 86 78 79 83 77 68
17 16 17 20 22 20 17 15 19 30 36 33 31 37 53 68 58 35 23 19 21 28 35 44 45 38 46 71 77 55 35 43 62 56 31 28 58 91 97 83 78 86 93 96 96 91 87 87 87 94 102 102 100 101 101 99 100 100 99 101 100 100 101 102 101 102 103 104 103 101 100 100 98 95 94 91 85 81 85 86 76 69 74 78 73 64
17 17 18 21 24 22 19 19 25 32 28 25 36 52 63 58 37 21 21 21 23 31 37 41 45 48 64 82 75 55 45 46 46 37 27 26 41 65 74 66 69 84 92 95 96 92 91 94 93 95 99 102 102 101 100 100 99 98 99 101 98 97 100 100 100 102 103 103 102 102 102 99 95 90 85 81 80 81 83 80 68 60 65 66 60 52
18 19 20 24 27 24 24 33 37 32 27 35 51 59 52 36 21 23 26 21 29 44 49 52 61 70 75 71 59 50 47 42 37 32 31 30 29 35 46 57 76 91 92 95 100 96 93 96 98 98 99 101 101 100 101 101 98 96 99 100 98 98 99 99 100 102 102 102 103 103 103 99 91 83 79 78 80 81 82 78 65 55 53 48 42 39
20 21 22 26 26 25 31 39 36 29 33 45 52 51 41 27 21 28 29 27 41 55 54 61 72 68 56 50 50 52 50 46 43 37 33 33 32 33 35 46 71 88 90 94 102 101 98 99 100 102 102 101 101 101 101 100 98 97 100 101 98 94 95 98 100 100 100 102 103 103 103 97 85 78 80 81 80 81 82 75 58 47 45 42 37 36
22 22 24 26 24 24 35 47 46 40 41 46 45 40 34 24 20 25 30 37 52 52 42 49 59 52 42 45 53 61 72 78 67 46 38 37 36 40 46 48 58 71 81 92 100 101 101 102 101 102 102 101 101 101 101 100 98 96 100 103 97 91 92 97 97 98 100 101 101 103 103 97 87 82 83 83 82 81 76 64 53 47 46 46 46 47
23 24 25 25 23 22 32 48 52 43 40 44 39 29 27 23 20 31 45 47 44 38 33 41 51 49 49 60 69 78 95 105 84 55 46 46 45 58 74 73 63 60 69 87 100 102 101 98 98 101 102 101 101 101 101 101 99 98 100 103 99 93 93 97 97 97 100 100 100 102 102 101 96 91 89 88 84 77 68 62 57 52 51 56 60 62
24 24 24 24 24 23 28 38 38 31 35 41 33 25 26 22 22 46 65 53 33 31 40 50 56 56 57 67 78 85 91 96 84 62 53 53 56 67 79 81 74 67 70 81 93 101 101 97 97 102 101 100 101 101 101 101 100 100 100 102 101 96 95 98 98 97 100 101 100 100 101 102 101 99 98 91 81 74 73 69 61 56 61 68 69 70
25 23 23 23 24 25 27 30 28 27 34 35 28 24 25 22 31 53 61 50 42 45 49 54 59 61 59 60 65 69 68 68 66 59 54 56 63 68 69 69 72 75 80 87 94 99 99 95 98 102 101 100 101 100 100 101 101 100 100 102 102 98 96 100 100 98 101 102 99 100 101 100 100 101 98 92 87 86 81 71 65 66 67 68 72 82
27 24 23 24 26 28 27 25 25 30 32 30 26 24 23 31 48 53 43 43 53 55 52 54 56 55 55 54 56 60 59 55 53 53 52 55 65 72 69 65 65 67 74 86 96 100 98 96 100 102 100 101 102 101 100 101 100 100 100 101 102 100 98 100 100 100 100 100 101 102 101 100 101 100 98 97 98 96 84 71 66 65 62 69 87 98
29 24 24 27 29 31 30 26 27 30 28 25 26 25 25 35 45 44 40 44 49 49 50 51 47 45 49 50 52 55 57 55 55 54 50 49 59 70 71 70 70 70 72 84 97 100 97 97 100 102 102 102 101 101 101 100 100 101 101 101 103 102 99 100 101 101 100 100 102 103 102 102 100 98 100 101 101 98 89 73 59 56 68 89 101 101
29 25 26 29 31 31 29 27 26 26 24 25 27 26 27 31 33 36 43 42 38 42 49 46 39 40 45 47 51 58 60 59 60 59 51 46 52 64 70 71 73 76 79 88 97 99 96 98 101 101 102 103 102 101 101 100 100 100 101 102 103 102 100 99 99 100 102 102 101 102 102 99 96 98 102 101 100 100 88 64 51 64 89 103 101 98
28 27 27 28 28 28 27 25 23 24 25 27 27 25 27 30 31 34 37 35 35 40 43 41 40 43 46 48 53 57 57 57 60 62 56 46 45 57 68 71 73 80 87 93 98 98 97 99 102 102 102 103 103 101 100 100 100 100 100 102 101 101 100 96 93 96 100 101 102 103 100 94 93 100 102 99 100 98 76 54 60 84 102 102 98 100
28 30 29 27 27 27 26 24 24 26 28 28 27 27 29 31 34 35 34 34 37 38 38 39 44 48 50 50 49 48 46 49 56 60 56 47 42 47 60 67 71 79 89 94 98 98 97 98 101 102 102 102 102 101 100 100 101 100 100 101 100 100 100 95 90 92 95 98 102 101 95 92 95 100 100 99 100 92 72 66 84 99 101 100 100 100
30 32 30 29 29 28 26 25 25 29 31 31 31 32 32 33 35 37 37 37 37 38 39 42 47 49 46 42 40 39 38 44 55 59 52 45 41 43 54 64 69 76 87 94 98 98 97 99 101 101 101 102 101 100 100 100 101 101 101 101 101 101 100 97 93 92 93 97 100 95 91 94 98 100 100 99 98 89 75 79 98 104 99 100 101 99
32 33 33 32 30 29 27 26 27 30 32 33 34 33 33 35 38 39 39 40 39 39 40 44 46 44 37 33 35 40 41 46 54 53 46 42 41 44 53 64 70 76 84 92 97 98 96 98 100 101 102 102 100 100 100 100 101 101 101 102 102 101 100 99 96 95 96 98 95 90 92 98 100 101 100 97 98 92 76 76 95 102 99 101 101 97
32 33 35 34 31 29 28 27 29 32 34 35 35 34 34 38 41 42 42 41 40 42 45 47 45 37 30 31 39 46 48 48 48 45 41 40 44 50 56 64 72 78 82 87 94 99 98 99 101 102 102 103 102 101 100 100 100 102 102 102 101 100 101 100 98 97 98 99 94 91 95 101 101 101 100 97 97 95 84 82 96 102 99 101 101 96
32 34 35 35 33 31 28 26 28 31 34 36 36 35 37 41 43 44 45 43 43 48 52 51 44 33 27 33 44 50 49 46 44 43 40 38 45 54 60 64 69 73 75 81 91 98 99 100 102 103 102 103 103 102 100 100 100 101 101 101 100 101 102 101 98 97 99 100 97 92 95 101 100 100 101 98 95 95 90 86 93 100 99 100 101 96
33 34 35 36 35 32 29 26 28 31 34 36 36 36 39 44 46 46 46 45 48 55 57 51 42 33 28 33 45 53 54 50 49 48 44 41 43 49 54 60 66 68 70 74 86 97 100 99 101 104 103 101 101 102 101 100 100 100 101 101 100 101 102 101 98 97 96 97 96 93 95 101 101 99 102 98 95 100 94 79 82 98 102 99 100 98
Wind_Speed
9 6 12 19 18 19 19 18 17 16 17 19 21 21 22 25 23 18 21 24 18 12 12 13 15 17 16 15 13 13 14 17 21 23 25 27 29 30 30 31 32 33 33 32 31 31 30 30 29 30 30 30 30 30 31 31 31 32 33 33 33 33 33 34 35 35 35 36 36 36 36 36 36 37 38 39 40 42 44 44 46 45 44 44 43 43
10 14 19 18 15 16 17 17 17 16 17 19 22 23 24 28 26 19 23 24 17 16 17 16 18 20 19 19 18 15 14 18 21 23 24 28 30 32 32 32 31 31 31 30 30 30 31 31 31 32 33 34 34 34 34 34 34 35 35 35 35 34 33 33 34 35 36 36 36 37 36 36 36 36 37 38 38 39 41 42 43 45 45 45 43 42
14 20 19 16 16 16 15 17 17 16 18 20 23 26 27 30 28 23 26 23 15 18 21 19 19 21 21 21 20 17 17 21 23 24 26 29 30 31 32 32 32 31 31 31 31 32 33 34 35 36 37 39 40 40 40 40 40 39 39 39 39 38 37 37 37 37 37 36 35 36 36 36 36 36 36 37 37 38 39 40 41 43 44 44 44 43
18 20 18 16 16 15 16 17 17 18 18 20 25 27 29 30 25 27 31 23 15 17 21 21 21 22 19 18 19 19 22 26 26 28 30 30 29 30 32 32 33 34 34 34 35 35 37 38 40 42 43 45 46 47 48 48 48 47 47 46 46 45 44 44 43 43 42 41 39 38 38 37 37 37 36 36 36 37 38 39 40 42 43 44 44 44
20 19 18 17 16 16 17 16 17 19 18 19 26 28 31 30 23 26 31 25 21 17 20 25 20 16 13 14 18 20 25 28 29 31 31 30 29 29 30 31 31 33 34 35 37 38 40 42 44 46 49 51 53 55 56 57 57 57 57 56 55 54 53 53 52 51 51 50 48 46 44 42 41 40 39 38 37 37 38 39 39 40 42 43 44 44
19 17 17 16 16 16 17 17 19 20 18 19 26 29 33 30 24 27 26 24 23 16 21 24 12 8 12 15 18 21 24 27 29 32 30 28 28 29 30 32 33 34 35 37 40 42 45 48 51 53 56 59 62 64 66 67 67 68 68 67 66 65 64 63 62 61 61 60 59 57 55 52 49 46 44 43 42 40 40 40 40 40 41 42 43 43
16 16 16 16 16 16 18 19 20 21 19 18 25 31 33 28 25 28 22 18 21 20 21 16 5 10 15 14 17 21 25 29 32 31 29 30 33 35 36 35 36 37 38 40 43 47 52 56 60 63 65 68 71 73 74 75 74 74 74 73 72 70 69 68 66 64 64 64 64 64 63 62 59 55 52 50 48 46 44 43 42 42 42 42 44 44
15 15 16 16 17 17 20 20 21 23 18 18 26 32 33 28 25 25 18 17 26 26 17 9 8 15 15 13 18 26 28 31 33 31 33 38 40 40 39 39 39 40 43 47 51 56 61 66 70 72 74 75 77 78 79 79 77 73 69 68 67 64 63 61 60 59 58 58 59 60 62 63 63 63 61 59 58 54 51 49 48 47 46 45 45 46
15 16 16 17 18 20 22 21 22 22 18 19 27 34 34 29 27 21 14 20 30 23 8 9 15 14 16 20 22 29 31 30 32 35 40 43 41 41 40 40 42 44 50 55 60 66 71 74 75 76 76 76 76 75 74 75 74 69 64 61 58 53 51 49 48 49 50 50 51 52 54 56 58 60 61 63 64 62 60 57 55 53 51 50 49 49
15 18 17 18 20 21 22 21 21 21 19 20 27 37 35 29 28 17 13 27 28 14 5 12 20 13 17 25 24 25 28 28 33 38 41 41 39 40 40 41 45 50 57 62 67 73 74 73 72 70 69 67 66 63 61 61 61 60 58 56 54 50 45 42 41 42 44 46 48 48 48 49 50 52 54 57 60 62 62 62 60 59 57 55 54 53
12 18 19 18 19 20 20 21 21 20 21 21 30 41 36 31 29 13 16 31 19 7 10 18 24 16 13 20 21 22 25 29 35 38 38 36 36 38 42 47 52 58 65 69 72 74 71 67 65 63 63 61 58 56 53 53 51 51 50 50 50 49 46 43 42 42 43 44 46 46 46 46 46 46 47 50 52 54 55 57 59 59 59 57 56 56
6 15 21 19 18 20 20 21 22 21 21 24 34 42 34 29 26 11 16 24 9 6 15 21 25 16 11 16 19 23 27 30 34 33 33 34 36 42 49 54 59 65 71 71 69 69 68 67 64 62 60 57 55 52 50 48 46 46 45 44 45 45 44 44 46 47 47 46 45 44 44 44 44 44 45 46 46 47 48 49 51 52 53 54 54 54
3 10 21 20 19 21 22 23 23 21 21 26 34 37 25 18 16 9 12 13 6 12 18 24 28 17 14 19 22 28 32 32 30 28 31 37 43 50 55 60 66 71 71 68 67 69 68 66 62 59 57 54 52 50 48 46 44 43 42 41 41 42 43 44 45 47 48 47 46 44 43 42 42 43 43 44 44 44 44 45 46 46 46 48 49 49
3 5 18 23 21 21 24 24 24 21 20 26 32 27 17 10 7 6 8 8 10 17 25 32 28 18 19 23 28 37 40 35 31 31 37 44 49 55 60 66 72 71 68 68 70 69 66 62 58 56 53 51 50 49 48 46 43 42 41 40 41 43 44 44 44 44 45 46 45 43 43 42 42 42 43 43 44 44 43 44 44 44 43 44 44 45
7 3 13 23 21 20 23 22 23 21 16 24 30 22 13 8 4 5 7 8 12 21 31 32 20 15 22 28 35 41 37 32 33 37 43 46 48 55 65 71 71 68 68 69 68 65 62 59 56 53 52 50 49 48 47 45 44 43 42 43 46 47 45 43 43 43 43 43 42 41 40 40 40 41 42 43 43 43 43 43 43 43 43 43 43 43
10 3 10 22 23 20 20 20 23 19 13 23 29 20 16 12 6 9 11 14 18 19 20 20 17 19 25 32 37 33 26 29 36 41 45 46 51 62 70 71 69 69 70 68 65 62 59 57 55 54 52 50 48 46 45 44 44 44 45 49 51 50 46 44 44 43 41 40 39 38 37 38 38 39 40 41 42 42 43 43 43 42 42 43 43 44
12 5 7 19 24 20 17 19 22 18 16 23 23 19 22 15 5 8 12 15 16 12 11 16 22 26 26 26 25 21 25 36 40 43 47 54 64 71 70 68 69 70 68 64 62 60 58 57 55 53 51 48 46 44 44 43 43 47 53 55 53 49 47 45 43 40 36 35 35 35 34 34 34 35 37 38 40 41 42 43 43 43 43 43 43 44
13 7 7 19 25 19 16 18 19 17 18 20 19 21 25 12 1 6 10 11 10 8 13 19 25 31 27 17 15 23 34 38 39 47 57 66 71 70 67 68 71 69 64 61 60 58 58 57 54 51 50 48 45 42 43 46 49 53 55 52 49 47 44 41 38 33 30 30 31 32 32 32 32 32 34 35 37 38 39 41 42 43 44 44 44 44
15 7 9 22 25 19 16 16 15 15 17 20 21 25 23 8 3 10 9 7 8 7 10 19 26 29 22 16 23 33 35 35 42 56 67 72 69 65 66 70 70 64 61 60 60 59 59 56 52 49 46 46 46 46 49 51 51 50 47 44 42 42 40 36 32 29 28 28 29 30 32 32 32 33 33 35 36 37 38 39 40 42 43 44 45 44
17 7 8 22 26 19 16 16 14 13 16 23 27 28 24 11 8 15 11 7 10 8 9 17 20 17 16 21 30 32 32 40 52 63 70 70 65 64 69 70 65 61 60 60 60 60 58 54 49 43 42 48 51 51 51 49 45 43 40 39 37 37 36 33 31 32 32 33 34 34 35 35 35 36 36 37 38 39 40 40 40 41 42 43 43 44
18 8 12 25 27 19 16 16 15 14 16 23 29 29 26 19 16 17 12 7 7 8 9 11 13 21 28 28 27 29 38 50 58 65 70 68 66 70 71 66 60 59 60 60 60 59 58 53 46 40 44 52 52 48 45 42 40 40 39 38 37 36 38 39 39 40 40 39 38 36 36 36 35 37 37 38 40 41 41 41 41 42 42 42 42 42
16 11 18 28 27 21 16 15 16 17 18 23 28 26 23 22 18 12 7 6 8 10 12 11 14 29 34 26 28 36 45 53 59 64 69 69 71 73 68 60 58 58 59 61 60 57 54 50 46 48 52 52 47 43 42 40 40 40 38 37 39 41 44 47 46 44 43 42 38 35 34 33 32 33 34 35 36 38 39 40 40 41 41 41 41 41
16 14 21 26 24 20 16 16 18 19 20 26 29 26 24 24 20 11 7 12 16 15 19 18 17 28 30 26 35 45 46 53 60 63 67 71 74 72 63 56 57 59 59 60 60 57 53 50 50 54 56 50 46 44 42 40 39 39 40 42 47 49 49 47 45 43 43 41 39 36 34 33 33 33 33 33 34 34 34 35 35 36 37 38 39 39
16 16 24 28 25 20 17 18 21 22 26 31 32 31 29 26 25 21 16 19 19 15 20 19 15 30 42 40 45 49 47 54 62 64 69 74 72 66 60 56 56 60 61 60 60 58 58 57 55 54 53 50 47 44 41 41 42 45 48 50 49 46 44 44 43 43 43 41 40 39 37 36 35 35 35 34 33 33 32 32 32 32 33 34 35 36
14 16 24 25 19 16 14 16 19 24 30 32 31 32 31 26 26 26 20 19 17 15 19 15 15 38 58 56 57 54 45 50 63 68 71 71 63 56 58 60 59 60 61 59 59 59 60 59 55 53 51 48 46 44 44 48 50 52 51 47 43 41 42 44 44 44 45 44 42 40 38 37 36 35 35 32 31 31 30 30 30 30 30 31 32 33
15 15 21 17 9 8 11 11 15 24 29 29 29 30 28 25 23 22 17 15 17 21 24 19 24 47 65 67 68 57 42 50 65 68 66 66 60 56 60 63 61 60 61 59 59 60 61 59 54 52 50 48 49 52 53 55 54 51 48 45 45 47 48 49 47 46 47 45 41 39 37 35 33 32 31 28 27 27 27 27 27 27 28 28 30 31
16 14 19 19 13 12 15 15 17 22 24 26 30 28 23 22 21 20 15 14 21 28 30 28 30 45 63 70 68 56 47 52 59 62 65 65 63 62 63 62 60 61 61 61 60 60 61 59 54 51 51 52 55 57 56 55 52 49 47 47 46 46 46 47 46 44 42 40 39 36 33 31 29 28 27 26 25 25 25 25 25 25 26 27 29 30
18 14 19 25 22 17 17 18 18 18 21 26 27 20 19 20 21 20 18 19 23 22 29 41 44 46 60 69 63 57 57 56 54 60 67 67 64 63 62 61 61 61 61 62 61 61 63 62 57 55 57 59 60 60 58 54 50 46 46 47 46 44 42 40 39 38 36 36 35 33 30 28 27 26 25 25 26 26 26 25 24 24 25 27 29 30
20 18 23 29 26 19 17 22 23 21 23 24 17 13 19 20 19 22 25 25 24 21 32 51 53 49 57 62 59 63 64 57 53 56 62 65 64 62 63 63 63 64 64 62 61 62 64 64 63 64 65 66 65 63 58 52 48 46 46 48 48 44 40 37 35 34 33 33 31 29 27 25 25 24 24 25 26 26 26 25 25 25 25 27 29 30
22 24 27 30 29 22 21 28 30 25 21 15 9 13 22 20 15 20 28 32 36 41 46 51 52 53 55 54 59 66 63 55 52 54 58 64 64 62 62 64 66 67 66 63 62 63 64 65 66 67 68 68 66 61 55 50 48 49 50 50 48 44 40 37 36 34 32 30 27 25 25 24 22 23 23 25 25 25 25 24 24 25 26 27 28 28
24 27 28 30 30 25 27 35 31 21 14 7 7 17 22 21 19 23 31 40 50 58 58 53 51 51 50 51 57 59 55 52 53 57 62 65 64 62 60 62 67 68 65 64 64 64 65 65 67 69 70 69 66 59 54 51 49 50 51 50 47 43 40 38 37 34 31 28 25 24 24 22 21 23 24 25 24 24 24 24 25 26 26 26 26 26
26 29 30 32 29 24 30 38 29 17 8 4 10 21 22 22 25 28 36 47 53 54 53 49 45 44 48 57 61 60 61 60 59 62 66 64 62 59 55 58 66 67 65 65 64 65 66 66 68 71 71 70 65 58 53 50 49 50 50 48 45 42 40 38 37 34 30 27 25 24 24 22 22 23 24 24 24 23 23 24 26 26 26 25 25 25
26 30 31 30 29 29 35 38 26 12 3 2 14 25 24 25 30 35 45 53 53 47 44 41 43 49 57 61 62 67 72 70 66 66 66 65 63 56 53 59 65 64 64 64 63 64 65 67 70 72 72 70 64 57 52 49 49 49 47 45 42 40 39 37 34 32 30 28 25 24 25 24 23 23 23 23 23 23 23 25 27 26 24 24 25 25
26 29 29 27 27 30 37 41 27 8 3 11 19 23 22 25 34 45 54 56 53 48 43 42 49 58 61 58 60 68 72 69 68 66 63 65 64 58 57 62 64 64 64 64 63 64 65 68 71 72 72 70 62 54 50 47 47 46 43 40 39 38 37 35 32 31 30 29 26 26 26 25 24 23 22 22 22 22 23 25 26 24 23 23 25 26
25 27 27 27 27 28 35 39 23 6 9 18 18 18 21 28 41 53 56 54 49 42 40 45 53 57 57 56 60 65 67 68 69 67 64 64 64 63 63 64 63 63 64 64 65 65 66 69 73 73 72 67 59 53 49 46 46 44 40 37 36 35 34 32 30 29 30 29 28 26 26 23 22 22 21 20 20 21 21 23 23 23 23 24 25 27
25 25 26 27 25 25 28 24 11 8 14 16 15 20 27 39 50 53 56 58 46 31 34 46 51 52 54 59 62 64 67 70 70 68 66 63 63 66 66 64 63 62 63 63 65 66 67 69 72 74 73 66 57 51 46 44 44 43 40 37 35 33 31 30 29 28 28 28 27 25 24 21 19 19 19 19 19 20 20 21 22 23 24 25 26 28
23 24 25 24 22 22 23 20 17 15 11 11 17 24 32 45 50 46 54 57 39 25 38 50 51 54 61 63 64 65 67 71 72 70 67 63 62 64 64 63 62 61 61 63 64 65 68 70 72 73 70 63 55 48 44 42 42 42 40 36 32 30 29 27 27 27 27 27 26 24 21 19 17 17 17 18 19 20 20 21 22 23 24 27 28 29
23 23 23 23 23 23 20 17 15 10 5 9 20 29 37 46 46 43 49 48 34 33 50 56 54 60 66 64 65 67 65 64 70 72 69 65 63 64 63 63 62 60 61 63 64 66 68 70 72 72 68 61 52 45 43 42 41 41 39 35 30 28 26 25 25 25 26 27 25 22 20 18 17 17 17 19 19 20 20 21 23 24 26 28 30 31
23 22 23 24 25 26 20 12 6 5 7 14 26 38 43 45 47 42 36 35 42 51 57 57 57 62 64 63 66 67 60 57 65 72 70 66 65 64 62 61 61 60 61 62 64 67 69 71 72 71 65 58 50 44 41 40 40 40 37 33 29 25 24 24 23 22 25 27 24 21 19 18 17 17 18 19 19 20 21 22 23 25 27 29 31 33
22 23 25 26 27 26 22 15 11 9 12 20 34 45 45 45 47 34 18 30 54 60 54 55 58 59 61 62 63 63 59 59 65 71 68 65 65 63 61 60 60 60 62 63 64 67 69 71 72 70 63 56 49 44 41 40 39 38 35 32 28 24 23 23 21 20 23 25 23 21 19 17 17 17 17 19 20 20 20 22 23 26 28 30 32 33
23 24 25 27 28 26 22 21 20 16 18 30 41 44 44 46 43 29 23 40 56 55 53 56 56 56 60 63 63 64 63 62 64 67 66 64 63 62 60 60 59 59 61 63 65 67 69 71 71 67 60 54 48 43 40 40 39 36 34 31 27 23 22 22 20 18 20 22 22 20 18 18 18 18 18 19 20 20 20 21 24 27 29 30 31 31
23 25 25 27 28 24 22 25 24 18 24 38 44 42 42 42 35 32 40 48 49 50 54 56 55 57 60 62 63 64 64 64 63 64 64 63 62 62 61 60 60 60 60 62 65 67 70 71 70 65 58 52 46 41 39 39 37 35 33 30 27 23 22 22 20 18 19 20 20 20 20 19 19 19 19 18 19 20 20 22 25 27 28 28 28 30
22 24 25 26 26 21 18 18 15 16 30 42 42 40 40 37 34 39 46 47 47 51 53 54 55 57 59 61 64 64 64 64 63 63 64 63 62 62 62 61 61 61 61 63 65 67 69 71 69 63 57 51 45 40 38 37 36 33 32 30 28 25 22 21 20 19 19 20 20 21 22 21 20 19 17 17 19 20 22 23 25 25 24 25 28 33
21 23 24 26 25 20 16 13 15 25 38 42 39 38 38 37 38 42 45 47 50 51 50 53 55 56 58 62 64 63 64 65 63 63 63 63 62 62 62 61 61 61 62 64 65 67 69 70 67 62 56 50 44 40 38 36 34 33 32 31 29 26 23 22 19 18 19 19 20 21 21 20 18 17 15 16 19 21 22 22 22 21 22 26 31 34
21 24 27 28 29 27 24 25 30 38 42 40 37 39 41 41 43 45 46 49 51 49 50 52 54 56 60 62 63 65 65 64 63 63 62 62 63 62 62 62 61 61 62 64 65 66 68 67 64 60 55 49 43 40 37 33 33 33 32 31 30 27 24 22 19 17 17 18 18 18 18 18 15 13 13 16 19 20 20 19 18 19 22 27 31 33
23 26 29 32 35 35 33 33 38 42 42 40 39 40 42 43 45 47 49 50 51 50 50 51 55 60 62 63 64 66 64 62 62 61 61 62 63 62 62 62 62 61 62 63 65 66 68 67 63 58 54 49 42 38 35 31 31 32 32 31 30 28 25 22 19 17 16 16 16 16 17 16 12 9 12 17 19 18 18 16 16 18 22 27 29 30
25 28 31 34 37 38 36 37 41 44 44 43 44 45 46 46 47 48 49 50 52 52 52 53 57 61 63 64 65 64 61 60 60 60 61 62 62 63 62 62 62 62 62 63 64 65 66 66 62 58 55 49 42 38 35 30 29 31 31 29 28 26 24 21 18 17 15 14 14 15 15 13 10 11 15 18 19 18 16 13 13 17 22 26 27 27
26 29 33 36 38 39 39 41 44 45 44 44 46 47 47 47 49 50 49 50 51 52 54 56 59 61 64 64 61 59 58 57 58 60 61 61 62 63 62 62 63 63 62 63 64 64 66 65 61 58 55 49 43 39 35 31 30 30 29 27 25 23 21 19 16 15 13 12 13 14 12 10 11 14 18 19 18 17 15 11 12 17 22 26 26 25
28 31 34 37 40 41 41 43 46 48 47 47 46 46 45 47 50 50 50 50 50 51 55 58 60 61 61 60 57 56 56 56 58 59 59 60 62 63 62 62 63 62 62 63 63 63 65 65 62 58 55 50 44 39 35 31 30 30 28 27 24 22 20 17 13 12 11 11 12 11 8 8 12 16 18 17 15 15 15 11 11 16 21 23 23 23
29 33 35 39 43 43 41 43 45 47 48 48 47 46 45 46 49 50 49 49 48 50 54 58 60 59 58 56 55 54 55 57 58 59 59 60 62 62 62 63 63 62 63 62 62 63 63 63 61 58 55 51 44 38 34 32 30 30 29 27 24 21 19 16 13 10 9 10 10 7 5 8 13 16 16 16 14 15 15 10 9 15 20 21 20 22
29 33 36 40 43 43 42 42 43 44 45 46 46 45 45 46 49 50 48 47 47 49 53 57 59 59 59 57 54 54 56 57 58 59 59 60 61 62 62 62 62 63 63 62 62 63 63 63 61 58 54 50 44 37 33 31 30 30 28 26 23 19 17 15 13 12 10 9 8 5 6 12 16 16 15 15 13 15 17 13 9 14 20 20 19 21
Wind_Direction
16 16 34 33 32 32 33 32 30 28 22 16 13 10 5 0 0 1 355 352 351 353 353 339 318 304 287 276 279 284 290 294 288 284 286 288 285 281 280 280 278 278 279 280 282 283 283 284 283 283 282 280 279 278 278 277 276 275 273 272 271 270 271 271 270 268 267 266 265 264 263 263 264 264 264 264 263 263 262 261 260 260 260 260 260 258
18 39 44 39 37 34 31 28 25 22 16 14 10 8 6 358 354 359 356 351 350 350 346 333 322 312 295 281 278 284 294 299 293 289 294 298 294 287 283 281 280 280 281 282 283 284 285 285 286 287 287 287 285 284 283 282 282 281 280 278 277 276 277 278 278 275 273 271 269 267 266 264 262 261 262 262 262 262 263 263 263 262 262 261 261 260
35 45 43 36 36 33 28 24 21 18 13 12 9 8 6 357 351 353 354 353 348 346 343 329 318 313 301 286 277 280 295 302 299 298 303 306 302 295 289 286 286 285 284 285 285 286 288 289 290 291 292 292 292 291 290 289 288 287 286 285 284 283 284 286 286 284 280 277 275 273 272 270 268 266 264 263 263 261 260 260 261 261 262 261 260 260
47 45 37 35 34 29 25 21 18 15 12 11 10 6 1 358 355 347 346 349 345 340 342 332 318 312 303 287 277 283 299 305 306 308 309 309 306 301 297 294 292 291 290 290 291 292 293 294 295 295 296 296 296 295 294 293 293 292 291 290 289 288 288 290 292 291 288 284 281 279 276 274 272 271 270 269 267 266 262 260 259 258 259 259 259 259
50 43 34 34 30 26 24 19 16 13 11 11 10 5 358 357 356 346 341 342 342 339 343 339 321 305 302 293 287 292 301 306 310 312 311 309 307 304 300 297 295 296 297 297 298 298 299 300 301 302 302 301 300 299 298 297 297 297 296 295 293 291 290 291 292 293 291 289 286 284 281 278 275 273 274 274 270 268 266 264 262 259 257 256 256 257
48 40 35 33 26 25 19 15 14 10 10 11 7 2 357 354 351 348 342 338 341 338 338 340 326 297 304 298 295 296 301 306 310 310 308 307 307 305 303 300 298 299 301 303 305 307 307 308 307 306 305 304 303 303 302 301 300 301 300 299 298 296 295 295 295 296 296 294 291 288 284 281 279 275 275 275 272 269 267 266 264 262 259 255 253 252
44 36 34 30 24 22 17 15 13 8 11 10 2 358 356 353 349 348 344 338 337 330 334 343 328 307 304 292 300 305 305 308 310 309 308 311 312 310 307 305 304 304 305 306 309 311 312 312 311 309 307 306 305 306 307 307 307 306 305 304 303 302 301 301 302 302 300 298 296 293 289 286 282 278 275 275 275 272 269 267 265 263 261 258 255 252
41 35 31 25 22 19 15 15 11 9 11 3 357 355 354 351 349 350 347 339 334 330 340 7 345 315 300 295 309 311 311 311 312 312 314 315 314 311 309 310 311 312 313 314 314 315 315 314 313 312 310 308 306 307 308 309 310 311 310 308 307 306 305 305 305 303 301 299 297 295 292 289 286 282 278 276 275 274 272 270 268 265 262 259 257 255
39 31 26 21 21 20 16 12 8 9 6 357 353 351 351 351 352 355 349 342 339 334 348 15 352 326 303 310 313 311 311 312 315 317 316 313 310 308 308 310 313 315 317 318 319 319 319 318 316 315 314 311 310 309 309 308 308 310 311 310 309 307 306 306 304 302 299 297 295 293 291 288 286 283 280 278 275 274 272 270 269 268 265 261 259 257
37 26 22 19 19 19 14 8 6 7 2 354 350 348 351 352 354 1 355 348 343 333 359 356 346 333 304 308 307 307 311 313 316 315 311 308 305 305 306 309 312 314 316 318 319 319 319 319 319 317 316 314 313 312 311 309 308 309 309 310 310 309 308 306 303 300 298 296 295 294 291 288 286 283 279 277 275 274 272 270 268 267 267 265 262 261
28 22 19 17 16 14 10 7 5 5 1 354 349 351 354 354 356 7 358 354 350 329 344 335 329 323 300 301 300 303 312 313 313 309 305 303 303 308 312 314 317 318 320 321 321 320 319 319 319 317 317 316 316 316 314 312 310 309 308 307 308 309 309 308 305 300 296 295 294 293 292 290 288 285 281 277 274 273 271 270 268 266 266 265 264 263
1 17 17 12 10 7 5 6 4 5 2 355 355 359 360 354 355 1 353 358 2 310 324 320 320 313 280 291 297 305 313 312 309 305 302 303 307 313 316 318 322 324 324 323 323 322 321 321 321 320 319 318 317 316 314 313 311 309 308 306 306 305 307 307 305 303 299 296 294 293 292 289 286 285 284 281 278 274 272 269 268 266 265 264 264 263
307 6 14 11 5 3 3 4 5 5 360 358 2 7 7 355 351 352 348 351 319 302 313 318 321 309 284 295 302 313 319 315 310 306 307 312 317 320 323 325 326 324 324 324 324 323 323 323 323 321 320 319 318 316 314 313 310 308 306 305 304 303 304 304 302 301 300 298 297 294 292 289 285 283 283 283 282 279 275 272 269 266 264 263 263 262
6 356 10 10 5 359 360 3 4 360 359 3 8 12 15 1 341 336 339 334 310 308 312 316 316 308 307 311 312 318 320 315 312 313 318 324 327 328 327 325 322 322 324 326 325 325 324 324 323 322 322 321 319 316 315 313 310 308 306 306 307 306 306 304 302 301 300 298 296 293 290 287 285 283 282 282 281 281 279 276 272 269 267 265 264 263
11 346 5 10 6 356 357 2 1 357 357 1 5 12 15 3 324 308 326 320 303 303 308 311 309 309 312 311 312 315 313 311 313 315 319 322 324 322 318 317 320 325 327 327 326 325 324 323 324 324 323 321 319 317 315 314 312 310 310 312 314 312 309 307 307 306 304 301 298 293 288 285 283 281 280 280 280 280 280 278 275 272 270 269 268 266
5 348 4 7 3 354 355 359 356 357 357 356 2 9 2 348 297 287 296 290 291 294 300 302 299 302 303 305 309 309 306 310 312 312 312 312 311 312 315 320 326 328 328 327 326 324 324 325 325 324 323 322 320 318 316 314 313 313 315 316 317 316 313 311 310 309 307 304 300 295 290 285 282 280 279 279 278 278 278 278 277 274 271 270 269 268
3 353 12 6 360 354 355 356 355 357 357 357 3 2 350 343 296 299 298 288 293 287 290 301 301 305 309 306 305 304 309 311 309 308 310 311 313 316 321 326 328 328 327 327 325 324 325 326 326 326 325 323 322 320 318 317 316 315 316 317 317 316 314 311 310 309 307 303 299 295 291 287 285 283 282 280 279 277 276 275 275 275 273 271 270 268
357 348 9 4 359 356 354 355 353 349 351 359 3 352 349 352 340 334 313 295 303 287 293 305 303 307 312 305 300 309 311 310 309 311 314 317 320 323 326 328 328 328 327 326 326 326 328 328 329 328 326 325 326 324 320 317 316 315 316 316 315 313 311 310 310 310 307 303 299 295 292 290 288 285 283 281 280 279 277 275 274 273 272 271 270 269
358 346 357 0 359 356 355 356 349 339 342 354 354 351 359 12 293 326 319 293 309 295 293 304 302 303 304 296 304 310 310 311 313 316 319 323 325 326 327 327 328 328 328 328 330 330 330 331 333 331 329 328 326 321 318 318 317 317 317 316 314 312 311 312 312 309 306 304 300 296 293 290 289 287 284 281 280 279 278 276 275 272 271 270 269 270
0 344 339 354 357 356 354 354 348 335 335 343 348 353 3 9 324 323 314 284 300 298 294 306 304 301 300 301 306 311 314 315 315 318 324 326 326 326 327 328 329 330 331 332 333 333 333 335 336 332 328 327 324 321 322 323 322 320 317 314 312 311 312 314 313 309 305 303 299 296 292 288 286 285 284 282 281 280 279 277 276 274 272 271 269 269
2 347 328 345 357 1 353 352 348 335 332 339 345 351 354 357 349 330 306 274 290 298 306 315 303 296 302 308 310 315 321 319 318 322 326 327 326 327 328 330 332 333 334 334 334 335 336 338 337 330 324 325 326 326 326 325 323 318 314 310 309 310 311 311 310 308 306 304 301 299 296 293 289 285 283 281 280 280 279 279 278 276 275 273 272 270
3 350 334 342 354 356 348 349 348 339 335 337 341 346 349 352 352 336 304 290 294 291 294 297 290 294 303 315 319 321 324 322 320 323 326 326 326 328 330 333 334 335 336 336 336 337 339 338 333 326 324 326 328 328 326 323 318 312 308 307 307 309 309 309 308 307 307 305 302 300 300 298 297 294 290 285 282 280 279 279 279 278 277 276 274 273
1 349 340 342 349 353 351 352 350 342 337 336 339 345 347 347 347 338 311 306 304 297 296 294 287 293 304 318 322 323 324 320 320 323 325 325 327 330 334 335 335 337 337 337 337 337 337 334 329 324 326 329 329 327 323 317 312 308 307 308 308 310 311 310 308 308 308 305 301 299 299 299 300 301 299 293 288 285 283 283 281 279 278 277 277 276
3 352 345 346 349 355 353 349 347 342 339 337 336 339 338 338 338 331 314 305 302 297 306 310 290 296 311 318 319 324 324 319 322 325 325 327 330 334 337 336 336 338 338 339 340 337 332 330 330 328 329 330 328 323 319 315 312 311 311 312 314 314 312 310 308 307 307 305 302 298 297 297 297 298 298 295 290 287 287 287 285 283 280 278 278 277
4 359 354 352 352 354 348 344 342 336 333 330 327 328 326 326 331 327 319 314 305 297 312 315 282 298 314 320 320 324 324 319 322 325 326 330 333 334 337 337 337 338 340 340 338 336 334 332 332 332 330 328 323 319 317 316 315 315 314 315 316 314 310 309 308 307 307 307 305 300 298 298 297 296 296 294 289 287 287 287 286 284 282 280 278 277
0 2 3 359 348 335 324 322 323 317 316 318 318 318 317 321 326 321 317 314 306 306 309 296 284 301 315 323 324 326 324 320 323 326 329 334 336 335 338 338 337 338 340 340 337 336 338 337 334 333 329 324 320 318 318 317 316 314 312 313 314 312 310 309 308 307 307 307 306 304 302 301 298 297 298 295 291 288 286 285 284 283 282 282 281 279
360 355 357 353 336 316 308 310 317 310 305 310 312 313 317 321 319 315 315 310 310 310 302 295 297 303 313 323 326 324 322 322 326 330 333 337 338 338 339 338 337 339 340 339 338 338 341 340 336 331 326 323 322 322 322 320 316 313 312 315 316 314 312 310 308 307 307 307 306 305 305 302 298 298 298 295 291 287 284 284 285 285 285 284 283 281
357 348 346 346 342 333 323 325 327 312 304 308 308 312 325 322 314 317 319 317 319 309 299 311 317 309 313 323 325 322 322 325 329 331 335 338 338 337 338 338 339 340 339 338 338 339 342 342 338 333 331 332 331 329 327 324 319 316 317 320 321 318 316 313 310 308 306 306 306 305 304 302 298 298 298 295 293 290 289 291 293 293 292 288 286 283
352 347 342 343 345 345 336 338 338 324 314 311 304 318 332 320 314 325 326 326 327 310 303 315 318 312 316 323 322 321 324 327 328 328 333 339 339 337 338 340 341 339 337 337 338 339 341 342 340 339 338 337 334 331 329 326 323 323 324 325 325 323 321 318 313 311 308 306 305 302 302 301 297 297 297 295 294 293 294 296 298 297 293 290 288 286
349 346 342 342 346 349 346 346 344 332 318 308 297 330 336 325 319 327 328 328 327 321 318 320 318 317 321 322 320 322 324 326 326 327 333 340 341 339 339 340 340 338 336 338 339 339 340 340 340 340 339 337 335 332 330 328 327 327 327 327 327 325 324 322 318 315 312 309 305 301 301 301 295 292 292 291 291 293 295 298 299 295 290 289 288 286
346 345 343 343 346 350 351 349 346 334 320 297 305 333 337 332 329 329 327 328 327 327 328 327 321 319 322 321 319 322 324 325 327 330 336 341 342 342 340 337 337 337 336 338 339 338 339 340 340 340 340 338 336 333 330 329 328 328 328 328 327 326 325 324 321 318 315 311 306 300 299 298 290 286 287 288 289 292 297 298 295 291 290 290 290 286
343 345 346 346 346 348 349 349 349 343 327 283 320 336 338 331 327 326 327 329 329 328 329 326 319 316 320 323 324 326 328 330 331 334 337 340 342 341 337 333 335 337 336 337 339 338 338 340 341 341 340 338 335 332 329 328 329 328 328 328 327 326 325 322 320 319 317 312 306 298 295 292 288 288 291 293 293 295 296 294 291 291 293 295 293 288
344 346 347 348 345 344 348 351 352 350 339 321 334 335 330 322 321 323 326 329 331 329 325 320 318 320 324 327 328 329 331 332 333 334 338 341 341 337 331 331 334 337 337 337 338 338 338 340 341 341 340 337 333 330 328 327 327 328 329 328 327 326 324 322 320 320 318 314 307 299 293 287 285 289 296 299 299 297 296 293 294 296 296 294 290 285
344 345 348 351 346 343 348 352 356 11 4 332 328 324 318 319 325 326 326 330 333 332 327 322 322 326 328 328 328 329 330 331 331 333 340 344 340 333 330 333 336 337 338 337 337 338 339 340 340 340 339 336 332 329 327 326 326 327 330 329 326 325 323 321 322 323 319 316 311 305 299 290 284 287 295 299 300 298 297 297 297 297 291 286 283 281
343 346 351 354 348 344 349 354 3 17 330 322 317 316 321 325 328 328 327 333 337 331 325 326 327 327 326 325 327 329 330 331 331 334 342 344 340 334 333 335 337 337 338 338 338 339 340 340 340 339 337 335 331 328 326 325 324 327 331 331 327 325 324 322 324 325 321 318 316 313 309 300 290 289 294 299 299 296 296 297 295 291 286 283 283 284
346 351 355 355 351 348 348 352 353 326 326 329 325 328 330 330 332 331 329 335 340 329 323 326 325 324 326 326 329 331 330 330 331 335 342 344 339 336 334 335 337 337 337 339 339 340 340 340 339 337 336 336 332 328 325 324 325 328 332 333 329 325 323 323 325 326 324 323 323 320 316 309 301 297 298 299 297 293 295 295 293 291 289 289 290 291
349 353 356 356 354 352 345 336 330 329 332 337 332 332 331 331 334 331 324 329 339 332 326 328 326 327 330 329 330 333 332 331 331 336 342 342 338 336 335 336 336 336 338 340 340 340 340 339 338 336 336 336 333 329 326 325 326 329 332 332 328 324 323 323 325 328 329 328 326 322 319 315 310 305 301 297 294 292 294 295 295 298 298 297 297 297
349 353 358 358 354 355 348 333 333 336 333 332 329 330 332 331 333 330 322 326 338 335 331 332 330 330 332 331 332 334 333 330 330 335 340 341 338 336 336 336 335 335 338 341 341 340 340 338 337 337 337 336 333 330 328 326 327 330 331 330 327 323 321 322 325 330 331 328 326 325 325 322 315 306 300 296 295 294 295 299 304 306 304 301 301 303
350 352 357 357 356 358 353 333 317 311 311 325 329 332 333 331 333 332 322 323 335 336 334 335 332 330 332 332 332 333 331 326 327 334 339 339 337 336 336 336 335 335 339 341 341 341 339 338 338 338 338 337 334 331 328 325 327 330 330 329 326 321 318 319 323 329 328 326 329 335 336 330 317 307 303 299 296 297 303 309 311 308 306 306 308 309
352 353 355 356 355 356 351 337 324 317 313 323 331 334 334 332 336 339 322 320 332 335 335 334 331 331 333 333 332 333 331 328 329 333 337 338 337 337 336 336 336 338 340 341 342 341 339 338 339 339 338 337 335 332 329 326 328 330 329 328 324 317 313 312 317 325 323 322 332 343 343 335 323 313 306 301 301 306 312 315 312 310 311 313 313 313
352 353 354 354 352 352 350 337 327 327 330 332 334 334 334 336 342 343 323 320 327 331 333 332 331 333 334 334 334 334 333 332 332 334 337 338 337 337 338 338 338 340 341 342 342 341 339 339 339 339 339 338 336 333 330 328 329 330 329 326 321 314 308 305 308 316 315 317 329 339 339 335 325 314 307 305 308 313 316 316 314 314 316 317 317 318
352 351 351 351 350 350 345 337 331 331 335 335 335 336 339 341 341 331 322 323 326 329 332 333 333 335 335 334 334 333 333 334 335 336 338 340 339 338 339 340 340 341 342 343 343 342 340 340 340 340 340 339 337 335 332 330 330 330 328 325 320 312 303 299 301 305 306 309 319 327 327 325 320 313 311 312 314 315 316 317 316 317 319 321 324 328
352 351 348 348 349 345 337 336 335 325 330 336 338 339 342 340 332 325 325 328 331 333 333 334 335 337 336 334 333 333 333 335 337 338 340 341 340 339 340 341 342 342 343 344 343 342 341 341 341 341 341 340 339 337 335 332 331 330 327 324 320 311 302 297 297 302 305 305 309 314 316 317 317 318 320 324 324 320 318 319 320 321 326 331 334 338
351 352 349 346 347 341 328 325 327 326 333 341 342 338 338 337 334 332 331 332 334 336 336 336 337 338 337 335 333 333 334 336 337 338 340 341 341 341 341 342 343 344 344 344 343 343 342 342 342 342 342 341 339 339 338 335 331 329 328 325 321 314 303 296 295 300 305 307 309 311 311 314 320 324 331 334 327 321 321 323 325 330 337 341 342 345
346 349 349 347 344 340 335 333 334 335 340 346 343 338 339 340 339 338 337 336 337 338 338 338 339 339 337 335 334 334 335 337 336 337 339 341 341 341 342 343 345 345 345 344 343 343 343 343 343 343 342 341 339 338 339 336 331 329 329 327 323 318 308 300 298 300 303 308 315 315 313 317 323 331 342 338 326 324 329 332 332 338 344 346 347 349
343 346 347 346 344 342 342 340 338 339 343 345 342 341 342 342 340 340 340 339 339 339 340 340 340 339 337 336 335 335 337 337 336 337 339 341 341 342 342 343 345 346 345 344 344 345 345 345 344 344 343 341 339 339 340 338 333 330 330 328 325 323 316 308 306 309 311 312 317 319 318 322 328 346 356 343 332 335 341 338 338 345 347 348 351 354
342 342 343 344 343 342 341 339 338 341 344 343 341 342 342 341 341 342 342 341 341 341 342 342 341 340 338 338 337 337 339 339 338 338 341 342 341 342 343 344 346 347 346 345 345 346 346 346 345 345 344 342 340 341 343 341 335 333 332 329 327 325 323 316 314 318 321 319 320 323 325 331 345 3 358 343 336 342 346 340 342 347 348 351 354 355
339 340 341 341 341 340 339 339 338 340 343 343 342 343 342 339 340 343 343 342 342 342 343 344 345 342 339 339 341 341 341 342 340 340 342 342 342 343 344 345 346 347 346 345 345 347 347 347 346 345 345 344 341 342 344 343 338 336 334 331 330 329 328 325 323 326 327 326 328 332 339 350 359 359 350 339 337 347 348 340 344 350 352 354 353 351
337 339 338 337 338 340 340 339 338 339 342 344 343 342 340 339 340 343 344 343 343 344 344 346 347 345 342 343 346 345 344 344 344 344 344 344 344 345 346 346 346 346 346 345 346 348 348 348 347 346 346 345 342 342 344 343 340 339 337 335 335 335 334 335 336 337 334 333 336 342 357 1 352 348 344 336 338 352 353 342 344 355 357 355 352 351
337 337 336 335 337 339 338 337 338 338 340 342 341 341 341 340 340 343 344 344 345 346 346 347 348 347 346 348 350 349 347 347 348 348 348 347 347 348 348 347 347 346 346 346 347 348 349 349 348 347 347 346 343 342 344 343 341 341 341 339 338 339 338 340 346 350 346 339 339 346 1 354 347 347 347 344 347 359 357 339 339 0 2 357 352 353
336 335 335 334 335 336 336 336 337 338 338 339 340 341 342 341 341 344 345 344 345 348 349 348 349 349 350 352 353 351 349 349 351 351 351 351 351 351 351 350 348 347 347 347 347 348 350 350 349 348 347 346 344 343 344 343 341 343 343 340 339 339 338 341 349 356 354 347 346 344 341 348 354 355 353 354 1 3 357 346 347 4 4 357 353 355